Time,TemperatureF,DewpointF,PressureIn,WindDirection,WindDirectionDegrees,WindSpeedMPH,WindSpeedGustMPH,Humidity,HourlyPrecipIn,Conditions,Clouds,dailyrainin,SoftwareType,DateUTC
2013-12-13 00:12:00,25.0,20.0,30.13,South,189,6.0,9.0,80,0.00,,,0.00,,2013-12-13 06:12:00,
2013-12-13 00:21:00,25.0,20.0,30.12,SSE,165,6.0,12.0,80,0.00,,,0.00,,2013-12-13 06:21:00,
2013-12-13 00:42:00,25.0,19.0,30.12,South,190,4.0,10.0,79,0.00,,,0.00,,2013-12-13 06:42:00,
2013-12-13 00:52:00,24.0,19.0,30.11,South,178,4.0,9.0,80,0.00,,,0.00,,2013-12-13 06:52:00,
2013-12-13 01:22:00,24.0,19.0,30.10,SSW,196,4.0,7.0,81,0.00,,,0.00,,2013-12-13 07:22:00,
2013-12-13 01:42:00,23.0,18.0,30.09,South,191,0.0,7.0,81,0.00,,,0.00,,2013-12-13 07:42:00,
2013-12-13 01:52:00,23.0,18.0,30.08,South,172,0.0,7.0,82,0.00,,,0.00,,2013-12-13 07:52:00,
2013-12-13 02:11:00,23.0,19.0,30.08,South,172,1.0,4.0,83,0.00,,,0.00,,2013-12-13 08:11:00,
2013-12-13 02:22:00,23.0,19.0,30.07,SSE,167,0.0,2.0,83,0.00,,,0.00,,2013-12-13 08:22:00,
2013-12-13 02:42:00,23.0,19.0,30.07,SSE,167,1.0,2.0,83,0.00,,,0.00,,2013-12-13 08:42:00,
2013-12-13 02:52:00,23.0,19.0,30.06,SSE,159,3.0,5.0,83,0.00,,,0.00,,2013-12-13 08:52:00,
2013-12-13 03:12:00,23.0,19.0,30.06,SSE,165,2.0,4.0,83,0.00,,,0.00,,2013-12-13 09:12:00,
2013-12-13 03:22:00,23.0,18.0,30.06,South,179,2.0,7.0,82,0.00,,,0.00,,2013-12-13 09:22:00,
2013-12-13 03:43:00,23.0,18.0,30.05,South,186,3.0,7.0,82,0.00,,,0.00,,2013-12-13 09:43:00,
2013-12-13 03:53:00,23.0,18.0,30.05,SSE,165,3.0,7.0,81,0.00,,,0.00,,2013-12-13 09:53:00,
2013-12-13 04:12:00,23.0,18.0,30.05,South,178,3.0,9.0,81,0.00,,,0.00,,2013-12-13 10:12:00,
2013-12-13 04:23:00,23.0,18.0,30.03,South,183,3.0,7.0,81,0.00,,,0.00,,2013-12-13 10:23:00,
2013-12-13 04:43:00,23.0,18.0,30.03,South,177,1.0,7.0,82,0.00,,,0.00,,2013-12-13 10:43:00,
2013-12-13 04:53:00,23.0,18.0,30.02,SSE,153,3.0,7.0,82,0.00,,,0.00,,2013-12-13 10:53:00,
2013-12-13 05:12:00,23.0,18.0,30.02,South,183,3.0,9.0,81,0.00,,,0.00,,2013-12-13 11:12:00,
2013-12-13 05:22:00,23.0,18.0,30.01,South,175,2.0,6.0,81,0.00,,,0.00,,2013-12-13 11:22:00,
2013-12-13 05:42:00,23.0,18.0,30.01,South,174,3.0,7.0,81,0.00,,,0.00,,2013-12-13 11:42:00,
2013-12-13 05:53:00,23.0,18.0,30.01,South,186,3.0,7.0,82,0.00,,,0.00,,2013-12-13 11:53:00,
2013-12-13 06:12:00,23.0,18.0,30.01,SSE,165,4.0,7.0,82,0.00,,,0.00,,2013-12-13 12:12:00,
2013-12-13 06:42:00,22.0,18.0,30.01,SSE,150,2.0,7.0,83,0.00,,,0.00,,2013-12-13 12:42:00,
2013-12-13 06:53:00,22.0,18.0,30.01,SSE,158,1.0,4.0,83,0.00,,,0.00,,2013-12-13 12:53:00,
2013-12-13 07:12:00,22.0,18.0,30.01,SSE,159,2.0,4.0,83,0.00,,,0.00,,2013-12-13 13:12:00,
2013-12-13 07:22:00,22.0,18.0,30.01,SSE,165,2.0,5.0,84,0.00,,,0.00,,2013-12-13 13:22:00,
2013-12-13 07:42:00,22.0,18.0,30.00,SSE,148,2.0,6.0,83,0.00,,,0.00,,2013-12-13 13:42:00,
2013-12-13 07:52:00,21.0,17.0,29.99,SSE,148,2.0,4.0,84,0.00,,,0.00,,2013-12-13 13:52:00,
2013-12-13 08:11:00,21.0,17.0,29.99,SSE,152,3.0,6.0,84,0.00,,,0.00,,2013-12-13 14:11:00,
2013-12-13 08:22:00,21.0,17.0,29.98,SSE,161,2.0,5.0,84,0.00,,,0.00,,2013-12-13 14:22:00,
2013-12-13 08:42:00,22.0,18.0,29.98,SSE,168,0.0,3.0,84,0.00,,,0.00,,2013-12-13 14:42:00,
2013-12-13 08:52:00,22.0,18.0,29.98,SSE,168,0.0,0.0,83,0.00,,,0.00,,2013-12-13 14:52:00,
2013-12-13 09:22:00,24.0,19.0,30.00,SSE,150,0.0,0.0,82,0.00,,,0.00,,2013-12-13 15:22:00,
2013-12-13 09:44:00,25.0,19.0,30.00,SSE,150,0.0,0.0,79,0.00,,,0.00,,2013-12-13 15:44:00,
2013-12-13 10:13:00,26.0,20.0,30.00,South,173,2.0,5.0,78,0.00,,,0.00,,2013-12-13 16:13:00,
2013-12-13 10:23:00,26.0,20.0,30.00,South,169,4.0,7.0,78,0.00,,,0.00,,2013-12-13 16:23:00,
2013-12-13 10:43:00,26.0,20.0,30.00,SSW,193,4.0,7.0,79,0.00,,,0.00,,2013-12-13 16:43:00,
2013-12-13 10:53:00,27.0,21.0,30.00,SSW,194,5.0,7.0,78,0.00,,,0.00,,2013-12-13 16:53:00,
2013-12-13 11:12:00,28.0,22.0,30.00,South,175,0.0,6.0,78,0.00,,,0.00,,2013-12-13 17:12:00,
2013-12-13 11:22:00,29.0,22.0,30.00,South,182,0.0,4.0,74,0.00,,,0.00,,2013-12-13 17:22:00,
2013-12-13 11:43:00,30.0,23.0,29.98,South,182,0.0,0.0,74,0.00,,,0.00,,2013-12-13 17:43:00,
2013-12-13 11:52:00,29.0,21.0,29.98,NNE,15,1.0,5.0,73,0.00,,,0.00,,2013-12-13 17:52:00,
2013-12-13 12:12:00,29.0,22.0,29.97,NW,311,3.0,9.0,75,0.00,,,0.00,,2013-12-13 18:12:00,
2013-12-13 12:22:00,29.0,22.0,29.97,NNE,32,5.0,10.0,74,0.00,,,0.00,,2013-12-13 18:22:00,
2013-12-13 12:42:00,30.0,23.0,29.96,North,5,3.0,8.0,74,0.00,,,0.00,,2013-12-13 18:42:00,
2013-12-13 12:52:00,30.0,23.0,29.96,NE,40,4.0,9.0,74,0.00,,,0.00,,2013-12-13 18:52:00,
2013-12-13 13:12:00,30.0,23.0,29.95,NE,39,3.0,8.0,76,0.00,,,0.00,,2013-12-13 19:12:00,
2013-12-13 13:22:00,30.0,23.0,29.94,ENE,61,3.0,9.0,75,0.00,,,0.00,,2013-12-13 19:22:00,
2013-12-13 13:42:00,31.0,24.0,29.94,NE,47,4.0,9.0,74,0.00,,,0.00,,2013-12-13 19:42:00,
2013-12-13 13:52:00,31.0,23.0,29.93,ENE,77,6.0,10.0,73,0.00,,,0.00,,2013-12-13 19:52:00,
2013-12-13 14:11:00,32.0,25.0,29.93,East,89,7.0,11.0,74,0.00,,,0.00,,2013-12-13 20:11:00,
2013-12-13 14:22:00,32.0,24.0,29.93,East,82,7.0,13.0,73,0.00,,,0.00,,2013-12-13 20:22:00,
2013-12-13 14:52:00,33.0,25.0,29.93,East,97,7.0,10.0,72,0.00,,,0.00,,2013-12-13 20:52:00,
2013-12-13 15:11:00,33.0,25.0,29.94,East,86,4.0,9.0,73,0.00,,,0.00,,2013-12-13 21:11:00,
2013-12-13 15:21:00,33.0,25.0,29.93,ENE,69,6.0,11.0,73,0.00,,,0.00,,2013-12-13 21:21:00,
2013-12-13 15:53:00,32.0,25.0,29.93,ENE,71,4.0,11.0,74,0.00,,,0.00,,2013-12-13 21:53:00,
2013-12-13 16:13:00,32.0,25.0,29.94,NE,55,4.0,8.0,74,0.00,,,0.00,,2013-12-13 22:13:00,
2013-12-13 16:23:00,32.0,25.0,29.95,ENE,59,3.0,9.0,74,0.00,,,0.00,,2013-12-13 22:23:00,
2013-12-13 16:42:00,32.0,25.0,29.96,NE,36,4.0,12.0,75,0.00,,,0.00,,2013-12-13 22:42:00,
2013-12-13 16:53:00,31.0,24.0,29.96,NE,53,4.0,11.0,76,0.00,,,0.00,,2013-12-13 22:53:00,
2013-12-13 17:12:00,30.0,24.0,29.97,ENE,58,6.0,14.0,77,0.00,,,0.00,,2013-12-13 23:12:00,
2013-12-13 17:22:00,29.0,23.0,29.98,NNE,30,9.0,15.0,78,0.00,,,0.00,,2013-12-13 23:22:00,
2013-12-13 17:42:00,28.0,23.0,29.99,NE,51,4.0,13.0,80,0.00,,,0.00,,2013-12-13 23:42:00,
2013-12-13 17:53:00,27.0,22.0,30.00,NE,48,6.0,15.0,81,0.00,,,0.00,,2013-12-13 23:53:00,
2013-12-13 18:11:00,25.0,20.0,30.01,NNE,24,7.0,15.0,81,0.00,,,0.00,,2013-12-14 00:11:00,
2013-12-13 18:21:00,24.0,19.0,30.02,East,80,5.0,15.0,82,0.00,,,0.00,,2013-12-14 00:21:00,
2013-12-13 18:42:00,24.0,20.0,30.02,ENE,61,6.0,13.0,83,0.00,,,0.00,,2013-12-14 00:42:00,
2013-12-13 18:52:00,23.0,19.0,30.03,NE,43,6.0,12.0,84,0.00,,,0.00,,2013-12-14 00:52:00,
2013-12-13 19:22:00,22.0,18.0,30.04,NNE,13,5.0,9.0,85,0.00,,,0.00,,2013-12-14 01:22:00,
2013-12-13 19:52:00,22.0,18.0,30.05,North,360,5.0,10.0,85,0.00,,,0.00,,2013-12-14 01:52:00,
2013-12-13 20:12:00,21.0,17.0,30.06,NNE,22,3.0,11.0,85,0.00,,,0.00,,2013-12-14 02:12:00,
2013-12-13 20:22:00,21.0,17.0,30.07,NW,324,4.0,9.0,86,0.00,,,0.00,,2013-12-14 02:22:00,
2013-12-13 20:42:00,21.0,17.0,30.07,North,355,5.0,11.0,86,0.00,,,0.00,,2013-12-14 02:42:00,
2013-12-13 20:52:00,21.0,17.0,30.08,NNE,17,6.0,12.0,86,0.00,,,0.00,,2013-12-14 02:52:00,
2013-12-13 21:12:00,21.0,17.0,30.09,North,5,7.0,14.0,86,0.00,,,0.00,,2013-12-14 03:12:00,
2013-12-13 21:22:00,21.0,17.0,30.09,NNE,17,7.0,14.0,86,0.00,,,0.00,,2013-12-14 03:22:00,
2013-12-13 21:43:00,21.0,17.0,30.10,North,355,6.0,12.0,86,0.00,,,0.00,,2013-12-14 03:43:00,
2013-12-13 21:54:00,21.0,17.0,30.11,NNW,346,7.0,15.0,86,0.00,,,0.00,,2013-12-14 03:54:00,
2013-12-13 22:13:00,21.0,18.0,30.10,NNE,13,7.0,13.0,87,0.00,,,0.00,,2013-12-14 04:13:00,
2013-12-13 22:23:00,21.0,18.0,30.10,ENE,63,7.0,13.0,87,0.00,,,0.00,,2013-12-14 04:23:00,
2013-12-13 22:43:00,21.0,17.0,30.10,NNW,344,4.0,11.0,86,0.00,,,0.00,,2013-12-14 04:43:00,
2013-12-13 22:53:00,21.0,17.0,30.11,North,9,6.0,14.0,86,0.00,,,0.00,,2013-12-14 04:53:00,
2013-12-13 23:12:00,21.0,17.0,30.12,NNE,13,5.0,13.0,86,0.00,,,0.00,,2013-12-14 05:12:00,
2013-12-13 23:22:00,21.0,17.0,30.13,NNW,334,7.0,15.0,86,0.00,,,0.00,,2013-12-14 05:22:00,
2013-12-13 23:42:00,21.0,17.0,30.14,NNE,17,6.0,12.0,86,0.00,,,0.00,,2013-12-14 05:42:00,
2013-12-13 23:52:00,20.0,16.0,30.14,WNW,302,7.0,13.0,85,0.00,,,0.00,,2013-12-14 05:52:00,